Location: Liscomb Game Sanctuary
(45.1633°N, 62.5575°W)
Time: 03:02:00
(UTC-03:00)

Amateur Radio Satellites - All Passes

Search period start: 29 April 2016 02:32
Search period end: 30 April 2016 02:32
Location: Liscomb Game Sanctuary, 45.1633°N, 62.5575°W

Satellite Date Start Highest point End Downlink Frequencies (MHz)
Time Altitude Azimuth
KKS-1 29 Apr 02:36:20 02:38:56 15° 60° (ENE) 02:41:32 437.445
BUGSAT 1 29 Apr 02:36:27 02:39:10 17° 298° (WNW) 02:41:53 437.445
JAS-2 29 Apr 02:46:42 02:54:21 78° 287° (WNW) 03:02:13 435.910
Cosmos 2499 29 Apr 02:48:18 02:55:23 70° 281° (W) 03:02:29 435.465 / 435.565
Gurwin Techsat 1B 29 Apr 02:53:37 02:58:37 40° 98° (E) 03:03:35 435.225
BEESAT 3 29 Apr 02:56:45 02:58:32 13° 33° (NNE) 03:00:18 437.485
STARS 29 Apr 03:05:09 03:07:50 16° 61° (ENE) 03:10:31 437.465
CUSAT 1 29 Apr 03:05:14 03:11:56 83° 78° (ENE) 03:19:53 437.405
ITAMSAT 1 29 Apr 03:05:25 03:09:23 22° 93° (E) 03:13:22 435.822/435.867
DANDE 29 Apr 03:07:00 03:12:39 47° 75° (ENE) 03:19:48 436.750
O/OREOS (USA 219) 29 Apr 03:16:15 03:19:02 16° 261° (W) 03:21:48 437.305
ITUPSAT 1 29 Apr 03:22:59 03:27:12 31° 264° (W) 03:31:25 437.325
RS-15 29 Apr 03:27:24 03:37:23 30° 356° (N) 03:47:43 29.354- 29.394
GONETS M04 29 Apr 03:31:05 03:38:24 28° 296° (WNW) 03:45:45
Oscar 19 29 Apr 03:35:36 03:40:26 39° 293° (WNW) 03:45:14 437.125/150
SWISSCUBE 29 Apr 03:35:38 03:39:15 21° 267° (W) 03:42:54 437.505
PCSat 29 Apr 03:38:51 03:42:36 19° 254° (WSW) 03:46:19 145.827
MOZHAYETS 4 29 Apr 03:41:27 03:45:42 39° 69° (ENE) 03:49:57
KKS-1 29 Apr 04:10:32 04:14:59 66° 258° (WSW) 04:19:29 437.445
BEESAT 29 Apr 04:12:05 04:13:24 11° 272° (W) 04:14:44 436.000
AO-7 29 Apr 04:26:09 04:33:57 42° 99° (E) 04:41:44 29.400- 29.500
BEESAT 2 29 Apr 04:31:44 04:35:34 42° 49° (NE) 04:39:22 435.950
BEESAT 3 29 Apr 04:33:01 04:36:59 70° 53° (NE) 04:40:54 437.485
JAS-2 29 Apr 04:33:13 04:38:17 20° 306° (NW) 04:43:30 435.910
Gurwin Techsat 1B 29 Apr 04:33:50 04:38:25 30° 296° (WNW) 04:43:00 435.225
STARS 29 Apr 04:39:19 04:43:43 62° 259° (WSW) 04:48:09 437.465
ITAMSAT 1 29 Apr 04:44:08 04:49:09 51° 290° (WNW) 04:54:09 435.822/435.867
Cosmos 2499 29 Apr 04:46:57 04:50:01 13° 304° (NW) 04:53:07 435.465 / 435.565
CUSAT 1 29 Apr 04:48:40 04:53:35 21° 274° (W) 04:59:01 437.405
DANDE 29 Apr 04:50:04 04:55:26 34° 267° (W) 05:02:00 436.750
CUBESAT XI-V 29 Apr 05:14:23 05:18:40 40° 70° (ENE) 05:22:59 437.345
MOZHAYETS 4 29 Apr 05:19:19 05:23:00 23° 267° (W) 05:26:40
HORYU 2 29 Apr 05:27:08 05:31:13 35° 97° (E) 05:35:17 437.375
AIST 2 29 Apr 05:27:44 05:30:40 18° 38° (NE) 05:33:36 435.215
RS-15 29 Apr 05:42:56 05:54:15 41° 30° (NNE) 06:05:43 29.354- 29.394
YUBILEINY 29 Apr 05:56:26 06:04:26 38° 69° (ENE) 06:12:22 435.215
BEESAT 2 29 Apr 06:10:10 06:13:10 21° 247° (WSW) 06:16:09 435.950
BEESAT 3 29 Apr 06:12:34 06:14:08 12° 251° (WSW) 06:15:41 437.485
AO-7 29 Apr 06:18:56 06:26:51 50° 299° (WNW) 06:34:45 29.400- 29.500
Cubesat XI-IV 29 Apr 06:24:30 06:28:01 18° 90° (E) 06:31:30 437.490
STRAND 1 29 Apr 06:24:40 06:28:45 25° 63° (ENE) 06:32:49 437.568
Cosmos 2504 29 Apr 06:26:10 06:29:53 14° 57° (ENE) 06:33:39 435.465 / 435.565
NOAA 15 29 Apr 06:37:28 06:42:17 34° 96° (E) 06:47:05 137.62
Cosmos 2491 29 Apr 06:41:24 06:48:53 33° 83° (E) 06:56:24 435.465 / 435.565
CUBESAT XI-V 29 Apr 06:52:35 06:56:12 23° 267° (W) 06:59:51 437.345
NOAA 18 29 Apr 06:56:33 07:01:46 43° 99° (E) 07:06:55 137.9125
HORYU 2 29 Apr 07:04:01 07:07:38 25° 295° (WNW) 07:11:13 437.375
AIST 2 29 Apr 07:05:28 07:09:37 70° 236° (WSW) 07:13:43 435.215
GOMX 1 29 Apr 07:07:17 07:11:42 24° 91° (E) 07:16:00 467.674
BRITE-PL 29 Apr 07:10:39 07:16:10 49° 98° (E) 07:21:40 437.365/2234.400
CUTE-I 29 Apr 07:20:16 07:25:29 54° 101° (E) 07:30:40 437.470
AUBIESAT-1 29 Apr 07:24:11 07:26:13 14° 94° (E) 07:28:10 437.475
DOVE 4 29 Apr 07:25:43 07:29:10 18° 88° (E) 07:32:30 437.250
HO-68 29 Apr 07:37:21 07:38:49 11° 84° (E) 07:40:17 435.675
LilacSat-2 29 Apr 07:42:09 07:46:00 83° 284° (WNW) 07:49:48 437.200
YUBILEINY 29 Apr 07:53:10 08:01:30 53° 270° (W) 08:09:49 435.215
RS-15 29 Apr 07:55:57 08:08:16 85° 238° (WSW) 08:20:36 29.354- 29.394
STRAND 1 29 Apr 08:02:44 08:07:38 47° 260° (W) 08:12:35 437.568
Cubesat XI-IV 29 Apr 08:03:17 08:08:34 66° 288° (WNW) 08:13:50 437.490
AO-7 29 Apr 08:13:58 08:17:41 14° 321° (NW) 08:21:25 29.400- 29.500
CANX-2 29 Apr 08:14:14 08:16:41 15° 90° (E) 08:19:08 2200.000
NOAA 15 29 Apr 08:17:15 08:22:03 35° 294° (WNW) 08:26:50 137.62
Cosmos 2504 29 Apr 08:17:15 08:24:41 70° 79° (E) 08:32:38 435.465 / 435.565
PRISM 29 Apr 08:32:45 08:36:49 86° 77° (ENE) 08:40:56 437.425
M-CUBED/EXP-1 PRIME 29 Apr 08:34:34 08:38:46 78° 289° (WNW) 08:42:33 437.505
Cosmos 2491 29 Apr 08:36:30 08:45:11 61° 284° (WNW) 08:53:58 435.465 / 435.565
NOAA 18 29 Apr 08:37:34 08:42:14 30° 297° (WNW) 08:46:53 137.9125
ISS 29 Apr 08:39:43 08:41:47 16° 134° (SE) 08:43:52 145.825
CINEMA 3 29 Apr 08:39:50 08:43:53 27° 93° (E) 08:47:45 145.822/145.860
GOMX 1 29 Apr 08:44:42 08:50:03 52° 289° (WNW) 08:55:14 467.674
CUTE 1.7 + AOD 2 29 Apr 08:46:54 08:50:35 29° 95° (E) 08:54:16 437.475
BRITE-PL 29 Apr 08:49:36 08:54:21 29° 295° (WNW) 08:59:08 437.365/2234.400
SO-50 29 Apr 08:53:59 08:58:53 73° 123° (ESE) 09:03:48 436.795
AUBIESAT-1 29 Apr 08:57:09 09:01:09 53° 293° (WNW) 09:04:49 437.475
CUTE-I 29 Apr 09:01:03 09:05:10 23° 299° (WNW) 09:09:16 437.470
DOVE 4 29 Apr 09:02:08 09:07:21 64° 287° (WNW) 09:12:19 437.250
HO-68 29 Apr 09:20:48 09:27:56 64° 103° (ESE) 09:35:00 435.675
UNISAT 6 29 Apr 09:21:09 09:23:57 16° 61° (ENE) 09:26:43 437.425
SEEDS 29 Apr 09:21:35 09:25:41 50° 99° (E) 09:29:45 437.485
COMPASS 1 29 Apr 09:32:47 09:36:49 48° 99° (E) 09:40:51 437.405
TIGRISAT 29 Apr 09:39:16 09:42:49 22° 64° (ENE) 09:46:20 435.000
Cubesat XI-IV 29 Apr 09:46:19 09:47:39 11° 307° (NW) 09:48:58 437.490
CANX-2 29 Apr 09:48:46 09:52:52 52° 287° (WNW) 09:56:58 2200.000
Oscar 11 29 Apr 09:51:33 09:55:13 26° 95° (E) 09:58:51 145.826/435.025
CUBEBUG 2 29 Apr 09:55:05 09:59:24 52° 99° (E) 10:03:33 437.445
UWE-3 29 Apr 09:56:38 10:00:40 37° 97° (E) 10:04:35 435.000/436.395/437.385
FUNcube-1 29 Apr 09:57:13 10:00:43 24° 94° (E) 10:04:08 145.935
ANTELSAT 29 Apr 10:01:45 10:06:01 36° 69° (ENE) 10:10:15 437.575/2403.000
AAUSAT CUBESAT 2 29 Apr 10:07:45 10:11:54 85° 280° (W) 10:16:02 437.432
RS-15 29 Apr 10:09:59 10:19:02 25° 260° (W) 10:28:07 29.354- 29.394
Cosmos 2504 29 Apr 10:11:44 10:17:25 24° 278° (W) 10:23:23 435.465 / 435.565
ISS 29 Apr 10:14:37 10:17:53 80° 331° (NNW) 10:21:09 145.825
CINEMA 3 29 Apr 10:16:45 10:21:04 34° 292° (WNW) 10:25:12 145.822/145.860
DELFI C3 29 Apr 10:20:44 10:24:06 26° 95° (E) 10:27:28 145.870
CUTE 1.7 + AOD 2 29 Apr 10:22:48 10:26:22 27° 292° (WNW) 10:29:55 437.475
SO-50 29 Apr 10:35:59 10:39:53 23° 323° (NW) 10:43:47 436.795
ZACube-1 29 Apr 10:36:41 10:40:57 70° 101° (E) 10:45:06 437.345
Cosmos 2491 29 Apr 10:40:02 10:44:16 14° 308° (NW) 10:48:32 435.465 / 435.565
HUMSAT D 29 Apr 10:40:59 10:44:01 20° 93° (E) 10:47:01 437.325/437.525
DOVE 4 29 Apr 10:43:10 10:43:57 10° 306° (NW) 10:44:44 437.250
QB50P2 29 Apr 10:47:28 10:50:53 24° 66° (ENE) 10:54:19 145.880/145.840
POLYITAN 1 29 Apr 10:49:31 10:52:59 24° 66° (ENE) 10:56:27 437.675
DUCHIFAT 1 29 Apr 10:53:01 10:56:24 23° 65° (ENE) 10:59:48 145.980
POPSAT HIP 1 29 Apr 10:53:12 10:56:43 25° 66° (ENE) 11:00:15 437.405
UNISAT 6 29 Apr 10:55:30 11:00:09 67° 258° (WSW) 11:04:46 437.425
QB50P1 29 Apr 10:56:42 11:00:20 28° 67° (ENE) 11:04:00 145.935-145.965
SEEDS 29 Apr 10:58:22 11:01:00 17° 297° (WNW) 11:03:40 437.485
HO-68 29 Apr 11:09:14 11:15:11 30° 302° (WNW) 11:21:07 435.675
COMPASS 1 29 Apr 11:09:20 11:12:02 17° 296° (WNW) 11:14:44 437.405
TIGRISAT 29 Apr 11:14:44 11:19:14 45° 261° (W) 11:23:41 435.000
ESTCUBE 1 29 Apr 11:18:14 11:19:19 11° 88° (E) 11:20:24 437.505/2401.250
JAS-2 29 Apr 11:20:55 11:23:19 12° 47° (NE) 11:25:49 435.910
Oscar 11 29 Apr 11:27:33 11:31:20 31° 292° (WNW) 11:35:07 145.826/435.025
CUBEBUG 2 29 Apr 11:32:43 11:35:37 17° 298° (WNW) 11:38:26 437.445
NANOSAT C BR1 29 Apr 11:33:11 11:37:24 63° 73° (ENE) 11:41:39 145.865
FUNcube-1 29 Apr 11:33:15 11:37:01 31° 292° (WNW) 11:40:42 145.935
UWE-3 29 Apr 11:33:35 11:36:55 22° 295° (WNW) 11:40:11 435.000/436.395/437.385
ANTELSAT 29 Apr 11:38:53 11:42:47 26° 266° (W) 11:46:40 437.575/2403.000
GONETS M04 29 Apr 11:39:56 11:48:07 41° 70° (ENE) 11:56:10
BUGSAT 1 29 Apr 11:51:24 11:55:26 46° 71° (ENE) 11:59:32 437.445
ISS 29 Apr 11:51:49 11:54:41 28° 351° (N) 11:57:34 145.825
DELFI C3 29 Apr 11:55:34 11:58:57 27° 292° (WNW) 12:02:19 145.870
CUBEBUG 1 29 Apr 12:02:54 12:06:26 23° 93° (E) 12:09:56 437.445
ZACube-1 29 Apr 12:14:43 12:16:41 13° 300° (WNW) 12:18:37 437.345
HUMSAT D 29 Apr 12:16:01 12:19:48 37° 290° (WNW) 12:23:32 437.325/437.525
VELOX 1 29 Apr 12:18:54 12:22:57 33° 97° (E) 12:26:59 145.980
AIST 1 29 Apr 12:22:10 12:26:35 70° 80° (E) 12:30:59
QB50P2 29 Apr 12:22:35 12:26:31 35° 263° (W) 12:30:30 145.880/145.840
POLYITAN 1 29 Apr 12:24:41 12:28:38 35° 263° (W) 12:32:35 437.675
DUCHIFAT 1 29 Apr 12:27:59 12:31:55 35° 263° (W) 12:35:52 145.980
POPSAT HIP 1 29 Apr 12:28:30 12:32:23 33° 264° (W) 12:36:17 437.405
PHONESAT 2.4 29 Apr 12:29:24 12:31:38 18° 159° (SSE) 12:33:53 2401.200-2431.200
DX 1 29 Apr 12:29:58 12:34:04 37° 98° (E) 12:38:09 434.975-435.025
QB50P1 29 Apr 12:32:17 12:36:02 30° 264° (W) 12:39:50 145.935-145.965
Cosmos 2499 29 Apr 12:35:30 12:42:43 46° 74° (ENE) 12:50:27 435.465 / 435.565
50 SAT 29 Apr 12:40:34 12:44:14 68° 103° (ESE) 12:47:51 437.505
Gurwin Techsat 1B 29 Apr 12:40:41 12:42:51 13° 55° (NE) 12:45:02 435.225
UKube-1 29 Apr 12:43:58 12:48:08 43° 99° (E) 12:52:16 .
AISAT 29 Apr 12:50:08 12:54:38 73° 103° (ESE) 12:59:06 437.250
ESTCUBE 1 29 Apr 12:52:10 12:56:43 83° 285° (WNW) 13:01:15 437.505/2401.250
JAS-2 29 Apr 13:01:05 13:06:49 60° 70° (ENE) 13:13:23 435.910
NANOSAT C BR1 29 Apr 13:11:32 13:13:34 13° 271° (W) 13:15:35 145.865
Oscar 19 29 Apr 13:15:06 13:20:05 51° 70° (ENE) 13:25:08 437.125/150
SPROUT 29 Apr 13:21:21 13:25:37 58° 100° (E) 13:29:50 437.525
BUGSAT 1 29 Apr 13:28:15 13:31:04 17° 269° (W) 13:33:55 437.445
ISS 29 Apr 13:28:51 13:31:47 29° 11° (N) 13:34:42 145.825
GONETS M04 29 Apr 13:36:47 13:45:06 50° 271° (W) 13:53:20
CUBEBUG 1 29 Apr 13:38:42 13:42:50 38° 290° (WNW) 13:46:57 437.445
AO-7 29 Apr 13:38:48 13:43:58 18° 44° (NE) 13:49:07 29.400- 29.500
VELOX 1 29 Apr 13:55:32 13:59:19 27° 294° (WNW) 14:03:05 145.980
AIST 1 29 Apr 14:01:59 14:03:33 12° 278° (W) 14:05:07
PHONESAT 2.4 29 Apr 14:05:09 14:08:03 33° 176° (S) 14:10:58 2401.200-2431.200
DX 1 29 Apr 14:06:34 14:10:04 24° 295° (WNW) 14:13:33 434.975-435.025
TISAT 1 29 Apr 14:10:23 14:14:36 59° 101° (ESE) 14:18:45 437.305
AO-85 29 Apr 14:14:12 14:19:36 63° 121° (ESE) 14:24:57 145.980
Gurwin Techsat 1B 29 Apr 14:16:37 14:21:55 77° 73° (ENE) 14:27:15 435.225
50 SAT 29 Apr 14:16:56 14:17:30 10° 299° (WNW) 14:18:04 437.505
UKube-1 29 Apr 14:20:41 14:23:54 21° 296° (WNW) 14:27:06 .
ITAMSAT 1 29 Apr 14:25:05 14:29:55 41° 68° (ENE) 14:34:46 435.822/435.867
AISAT 29 Apr 14:28:13 14:30:32 14° 300° (WNW) 14:32:51 437.250
Cosmos 2499 29 Apr 14:28:51 14:35:42 39° 273° (W) 14:43:02 435.465 / 435.565
BEESAT 29 Apr 14:29:10 14:32:32 19° 92° (E) 14:35:52 436.000
ESTCUBE 1 29 Apr 14:31:45 14:32:47 11° 303° (WNW) 14:33:48 437.505/2401.250
JAS-2 29 Apr 14:47:55 14:52:31 23° 272° (W) 14:57:34 435.910
Oscar 19 29 Apr 14:55:46 14:59:43 22° 268° (W) 15:03:42 437.125/150
SPROUT 29 Apr 14:58:32 15:01:07 16° 298° (WNW) 15:03:42 437.525
ISS 29 Apr 15:05:15 15:08:32 88° 210° (SSW) 15:11:49 145.825
ITUPSAT 1 29 Apr 15:20:35 15:25:18 57° 101° (E) 15:29:59 437.325
AO-7 29 Apr 15:27:06 15:35:17 67° 66° (ENE) 15:43:29 29.400- 29.500
SWISSCUBE 29 Apr 15:32:09 15:36:56 83° 103° (ESE) 15:41:42 437.505
PHONESAT 2.4 29 Apr 15:41:49 15:44:34 27° 192° (SSW) 15:47:20 2401.200-2431.200
SO-50 29 Apr 15:43:56 15:47:38 21° 36° (NE) 15:51:14 436.795
TISAT 1 29 Apr 15:47:21 15:49:47 15° 299° (WNW) 15:52:13 437.305
O/OREOS (USA 219) 29 Apr 15:49:47 15:54:09 44° 108° (ESE) 15:58:32 437.305
AO-85 29 Apr 15:55:49 16:00:31 28° 320° (NW) 16:05:08 145.980
Gurwin Techsat 1B 29 Apr 15:59:28 16:02:28 15° 271° (W) 16:05:29 435.225
KKS-1 29 Apr 16:00:09 16:03:31 20° 93° (E) 16:06:50 437.445
ITAMSAT 1 29 Apr 16:05:09 16:09:31 27° 265° (W) 16:13:55 435.822/435.867
BEESAT 29 Apr 16:06:00 16:10:38 52° 289° (WNW) 16:15:14 436.000
CUSAT 1 29 Apr 16:13:08 16:16:20 67° 97° (E) 16:20:29 437.405
DANDE 29 Apr 16:21:55 16:24:12 23° 90° (E) 16:26:50 436.750
NOAA 15 29 Apr 16:24:37 16:25:50 11° 53° (NE) 16:27:02 137.62
HORYU 2 29 Apr 16:26:52 16:31:06 43° 70° (ENE) 16:35:21 437.375
STARS 29 Apr 16:27:24 16:30:43 20° 93° (E) 16:34:00 437.465
PCSat 29 Apr 16:38:04 16:43:06 41° 113° (ESE) 16:48:10 145.827
ISS 29 Apr 16:42:54 16:44:33 13° 227° (SW) 16:46:12 145.825
NOAA 18 29 Apr 16:47:03 16:50:27 17° 57° (ENE) 16:53:51 137.9125
Cosmos 2491 29 Apr 16:48:46 16:54:33 19° 56° (ENE) 17:00:16 435.465 / 435.565
ITUPSAT 1 29 Apr 16:59:24 17:02:43 19° 299° (WNW) 17:06:01 437.325
CUTE-I 29 Apr 17:06:45 17:10:05 17° 58° (ENE) 17:13:26 437.470
MOZHAYETS 4 29 Apr 17:10:58 17:15:32 70° 102° (ESE) 17:20:05
SWISSCUBE 29 Apr 17:11:44 17:14:05 14° 302° (WNW) 17:16:25 437.505
PHONESAT 2.4 29 Apr 17:20:10 17:20:50 10° 208° (SSW) 17:21:30 2401.200-2431.200
AO-7 29 Apr 17:21:38 17:28:37 30° 265° (W) 17:35:40 29.400- 29.500
SO-50 29 Apr 17:23:53 17:28:39 74° 236° (SW) 17:33:13 436.795
O/OREOS (USA 219) 29 Apr 17:30:02 17:33:45 24° 306° (NW) 17:37:29 437.305
KKS-1 29 Apr 17:36:01 17:40:16 43° 290° (WNW) 17:44:30 437.445
AO-85 29 Apr 17:41:50 17:42:47 10° 342° (NNW) 17:43:44 145.980
Cubesat XI-IV 29 Apr 17:48:02 17:52:52 36° 66° (ENE) 17:57:41 437.490
M-CUBED/EXP-1 PRIME 29 Apr 17:48:39 17:52:24 24° 59° (ENE) 17:56:07 437.505
NOAA 15 29 Apr 17:59:24 18:04:36 66° 72° (ENE) 18:09:52 137.62
STARS 29 Apr 18:03:05 18:07:16 42° 290° (WNW) 18:11:24 437.465
HORYU 2 29 Apr 18:04:31 18:07:51 20° 267° (W) 18:11:13 437.375
DANDE 29 Apr 18:05:49 18:07:15 13° 298° (WNW) 18:08:48 436.750
HO-68 29 Apr 18:08:40 18:11:52 14° 46° (NE) 18:15:05 435.675
AUBIESAT-1 29 Apr 18:10:19 18:14:22 30° 62° (ENE) 18:18:24 437.475
GOMX 1 29 Apr 18:17:04 18:21:21 30° 65° (ENE) 18:25:53 467.674
PCSat 29 Apr 18:21:35 18:26:34 36° 312° (NW) 18:31:34 145.827
BRITE-PL 29 Apr 18:23:27 18:28:06 61° 73° (ENE) 18:33:12 437.365/2234.400
NOAA 18 29 Apr 18:24:52 18:30:25 84° 255° (WSW) 18:35:58 137.9125
LilacSat-2 29 Apr 18:25:42 18:29:33 63° 74° (ENE) 18:33:24 437.200
DOVE 4 29 Apr 18:32:37 18:36:32 23° 62° (ENE) 18:40:34 437.250
CUTE-I 29 Apr 18:44:11 18:49:31 78° 256° (WSW) 18:54:52 437.470
Cosmos 2491 29 Apr 18:44:11 18:53:04 78° 80° (E) 19:01:51 435.465 / 435.565
CUBESAT XI-V 29 Apr 18:45:36 18:50:18 77° 102° (ESE) 18:55:00 437.345
MOZHAYETS 4 29 Apr 18:49:38 18:52:09 15° 300° (WNW) 18:54:40
YUBILEINY 29 Apr 19:00:14 19:08:08 40° 86° (E) 19:16:00 435.215
CANX-2 29 Apr 19:09:27 19:11:52 15° 62° (ENE) 19:14:18 2200.000
M-CUBED/EXP-1 PRIME 29 Apr 19:22:04 19:26:38 48° 256° (WSW) 19:31:13 437.505
Cubesat XI-IV 29 Apr 19:28:09 19:32:56 33° 264° (W) 19:37:45 437.490
NOAA 15 29 Apr 19:41:24 19:44:52 18° 270° (W) 19:48:22 137.62
CUTE 1.7 + AOD 2 29 Apr 19:41:36 19:45:11 27° 68° (ENE) 19:48:45 437.475
CINEMA 3 29 Apr 19:42:38 19:47:07 34° 68° (ENE) 19:51:37 145.822/145.860
AUBIESAT-1 29 Apr 19:44:29 19:48:45 35° 258° (WSW) 19:53:00 437.475
HO-68 29 Apr 19:51:10 19:58:09 58° 67° (ENE) 20:05:08 435.675
GOMX 1 29 Apr 19:54:41 19:59:16 39° 265° (W) 20:04:11 467.674
BEESAT 3 29 Apr 20:02:47 20:06:41 65° 121° (ESE) 20:10:37 437.485
BEESAT 2 29 Apr 20:03:08 20:06:50 38° 118° (ESE) 20:10:34 435.950
LilacSat-2 29 Apr 20:03:12 20:04:16 11° 271° (W) 20:05:19 437.200
BRITE-PL 29 Apr 20:04:03 20:07:08 17° 273° (W) 20:10:22 437.365/2234.400
DOVE 4 29 Apr 20:08:53 20:13:48 54° 261° (W) 20:18:58 437.250
NOAA 18 29 Apr 20:09:53 20:11:53 12° 273° (W) 20:13:53 137.9125
PCSat 29 Apr 20:10:35 20:11:40 11° 336° (NNW) 20:12:45 145.827
STRAND 1 29 Apr 20:10:52 20:15:50 49° 100° (E) 20:20:46 437.568
SEEDS 29 Apr 20:15:07 20:19:05 45° 72° (ENE) 20:23:05 437.485
PRISM 29 Apr 20:15:28 20:15:45 10° 89° (E) 20:16:02 437.425
CUBESAT XI-V 29 Apr 20:24:38 20:27:05 14° 300° (WNW) 20:29:32 437.345
COMPASS 1 29 Apr 20:25:23 20:29:17 42° 71° (ENE) 20:33:12 437.405
CUTE-I 29 Apr 20:29:50 20:30:25 10° 274° (W) 20:31:00 437.470
Cosmos 2491 29 Apr 20:42:18 20:48:56 25° 281° (W) 20:55:32 435.465 / 435.565
CANX-2 29 Apr 20:43:07 20:47:17 58° 259° (W) 20:51:28 2200.000
Oscar 11 29 Apr 20:48:16 20:51:54 27° 67° (ENE) 20:55:33 145.826/435.025
CUBEBUG 2 29 Apr 20:54:21 20:59:00 57° 73° (ENE) 21:03:38 437.445
FUNcube-1 29 Apr 20:54:23 20:58:12 27° 67° (ENE) 21:01:58 145.935
UWE-3 29 Apr 20:54:58 20:59:20 41° 70° (ENE) 21:03:40 435.000/436.395/437.385
YUBILEINY 29 Apr 20:56:20 21:04:45 50° 287° (WNW) 21:13:11 435.215
Cosmos 2504 29 Apr 20:58:27 21:05:31 54° 91° (E) 21:12:25 435.465 / 435.565
AAUSAT CUBESAT 2 29 Apr 20:59:37 21:03:44 82° 74° (ENE) 21:07:53 437.432
AO-85 29 Apr 21:04:56 21:08:29 19° 33° (NNE) 21:11:50 145.980
AIST 2 29 Apr 21:06:36 21:08:50 14° 110° (ESE) 21:11:05 435.215
DELFI C3 29 Apr 21:09:09 21:12:07 21° 66° (ENE) 21:15:07 145.870
CUTE 1.7 + AOD 2 29 Apr 21:17:17 21:20:57 29° 264° (W) 21:24:39 437.475
CINEMA 3 29 Apr 21:19:44 21:24:12 32° 265° (W) 21:28:43 145.822/145.860
ZACube-1 29 Apr 21:33:47 21:38:20 70° 74° (ENE) 21:42:48 437.345
HUMSAT D 29 Apr 21:34:23 21:37:28 20° 65° (ENE) 21:40:31 437.325/437.525
HO-68 29 Apr 21:40:05 21:46:13 30° 266° (W) 21:52:23 435.675
BEESAT 2 29 Apr 21:41:26 21:44:48 26° 317° (NW) 21:48:12 435.950
BEESAT 3 29 Apr 21:41:59 21:44:47 18° 321° (NW) 21:47:35 437.485
PRISM 29 Apr 21:47:25 21:51:35 77° 286° (WNW) 21:55:45 437.425
STRAND 1 29 Apr 21:50:41 21:54:42 24° 297° (WNW) 21:58:42 437.568
SEEDS 29 Apr 21:52:16 21:55:02 17° 269° (W) 21:57:49 437.485
COMPASS 1 29 Apr 22:02:12 22:05:03 18° 268° (W) 22:07:55 437.405
AISAT 29 Apr 22:17:06 22:17:54 10° 57° (ENE) 22:18:43 437.250
ESTCUBE 1 29 Apr 22:19:19 22:21:41 14° 60° (ENE) 22:24:01 437.505/2401.250
RS-15 29 Apr 22:21:26 22:32:08 53° 112° (ESE) 22:43:25 29.354- 29.394
Oscar 11 29 Apr 22:24:08 22:27:57 30° 264° (W) 22:31:48 145.826/435.025
FUNcube-1 29 Apr 22:30:13 22:34:20 33° 264° (W) 22:38:24 145.935
UWE-3 29 Apr 22:32:16 22:35:56 23° 267° (W) 22:39:35 435.000/436.395/437.385
CUBEBUG 2 29 Apr 22:32:50 22:35:57 17° 269° (W) 22:39:05 437.445
AIST 2 29 Apr 22:42:43 22:46:49 65° 307° (NW) 22:50:58 435.215
DELFI C3 29 Apr 22:43:13 22:46:49 34° 263° (W) 22:50:27 145.870
AO-85 29 Apr 22:44:51 22:49:46 88° 54° (NE) 22:54:12 145.980
UNISAT 6 29 Apr 22:46:04 22:49:25 21° 93° (E) 22:52:42 437.425
Cosmos 2504 29 Apr 22:52:58 22:59:14 30° 292° (WNW) 23:05:25 435.465 / 435.565
CUBEBUG 1 29 Apr 23:00:52 23:04:25 25° 66° (ENE) 23:08:00 437.445
YUBILEINY 29 Apr 23:02:25 23:04:12 11° 312° (NW) 23:05:59 435.215
TIGRISAT 29 Apr 23:04:29 23:08:23 31° 96° (E) 23:12:11 435.000
HUMSAT D 29 Apr 23:08:48 23:12:50 42° 262° (W) 23:16:51 437.325/437.525
ZACube-1 29 Apr 23:12:57 23:15:03 13° 271° (W) 23:17:09 437.345
VELOX 1 29 Apr 23:18:02 23:22:06 37° 69° (ENE) 23:26:13 145.980
50 SAT 29 Apr 23:21:09 23:24:36 41° 72° (ENE) 23:28:04 437.505
DX 1 29 Apr 23:27:14 23:31:20 42° 70° (ENE) 23:35:29 434.975-435.025
ANTELSAT 29 Apr 23:27:46 23:32:06 57° 101° (E) 23:36:19 437.575/2403.000
UKube-1 29 Apr 23:40:14 23:44:23 47° 71° (ENE) 23:48:34 .
PCSat 29 Apr 23:41:28 23:44:11 14° 30° (NNE) 23:46:52 145.827
AISAT 29 Apr 23:49:11 23:53:37 82° 76° (ENE) 23:58:07 437.250
ESTCUBE 1 29 Apr 23:53:28 23:57:55 72° 257° (WSW) 00:02:25 437.505/2401.250
QB50P2 30 Apr 00:05:22 00:09:10 31° 96° (E) 00:12:56 145.880/145.840
POLYITAN 1 30 Apr 00:07:28 00:11:17 31° 96° (E) 00:15:03 437.675
DUCHIFAT 1 30 Apr 00:10:02 00:13:46 30° 96° (E) 00:17:28 145.980
POPSAT HIP 1 30 Apr 00:11:01 00:14:53 33° 97° (E) 00:18:42 437.405
QB50P1 30 Apr 00:14:32 00:18:30 36° 97° (E) 00:22:24 145.935-145.965
SPROUT 30 Apr 00:16:35 00:20:49 57° 73° (ENE) 00:25:05 437.525
O/OREOS (USA 219) 30 Apr 00:19:19 00:22:16 17° 49° (NE) 00:25:12 437.305
UNISAT 6 30 Apr 00:22:14 00:26:18 38° 291° (WNW) 00:30:17 437.425
AIST 2 30 Apr 00:24:15 00:26:08 13° 328° (NNW) 00:28:01 435.215
AO-85 30 Apr 00:27:47 00:29:20 12° 255° (WSW) 00:30:51 145.980
RS-15 30 Apr 00:33:21 00:44:34 57° 318° (NW) 00:56:27 29.354- 29.394
CUBEBUG 1 30 Apr 00:36:32 00:40:32 35° 263° (W) 00:44:37 437.445
TIGRISAT 30 Apr 00:41:18 00:45:00 27° 294° (WNW) 00:48:36 435.000
GONETS M04 30 Apr 00:43:35 00:51:43 43° 86° (E) 00:59:50
NANOSAT C BR1 30 Apr 00:51:11 00:55:27 88° 96° (E) 00:59:40 145.865
AIST 1 30 Apr 00:53:40 00:57:35 36° 91° (E) 01:01:33
VELOX 1 30 Apr 00:55:09 00:58:41 23° 266° (W) 01:02:15 145.980
ITUPSAT 1 30 Apr 00:55:12 00:56:51 12° 56° (ENE) 00:58:29 437.325
50 SAT 30 Apr 00:56:32 00:58:38 14° 268° (W) 01:00:42 437.505
CUSAT 1 30 Apr 01:01:33 01:05:15 15° 60° (ENE) 01:09:14 437.405
TISAT 1 30 Apr 01:03:41 01:07:50 57° 73° (ENE) 01:12:02 437.305
DX 1 30 Apr 01:04:30 01:07:43 20° 267° (W) 01:10:58 434.975-435.025
SWISSCUBE 30 Apr 01:05:07 01:07:59 16° 60° (ENE) 01:10:51 437.505
ANTELSAT 30 Apr 01:05:41 01:08:21 16° 299° (WNW) 01:10:59 437.575/2403.000
BUGSAT 1 30 Apr 01:06:21 01:10:33 60° 101° (E) 01:14:41 437.445
Cosmos 2499 30 Apr 01:15:59 01:22:05 32° 85° (E) 01:28:10 435.465 / 435.565
UKube-1 30 Apr 01:17:47 01:20:42 17° 268° (W) 01:23:37 .
PCSat 30 Apr 01:23:33 01:28:53 52° 53° (NE) 01:34:10 145.827
Oscar 19 30 Apr 01:25:52 01:28:54 15° 89° (E) 01:31:55 437.125/150
AISAT 30 Apr 01:29:46 01:30:42 11° 272° (W) 01:31:39 437.250
BEESAT 30 Apr 01:37:20 01:41:21 28° 65° (ENE) 01:45:23 436.000
QB50P2 30 Apr 01:41:19 01:44:53 26° 293° (WNW) 01:48:24 145.880/145.840
POLYITAN 1 30 Apr 01:43:27 01:46:59 26° 294° (WNW) 01:50:29 437.675
DUCHIFAT 1 30 Apr 01:45:50 01:49:23 27° 293° (WNW) 01:52:55 145.980
POPSAT HIP 1 30 Apr 01:47:04 01:50:32 25° 294° (WNW) 01:53:58 437.405
QB50P1 30 Apr 01:50:45 01:54:05 22° 295° (WNW) 01:57:22 145.935-145.965
JAS-2 30 Apr 01:51:51 01:59:21 52° 98° (E) 02:06:57 435.910
SPROUT 30 Apr 01:54:42 01:57:08 15° 270° (W) 01:59:36 437.525
O/OREOS (USA 219) 30 Apr 01:57:40 02:02:11 68° 249° (WSW) 02:06:39 437.305
NANOSAT C BR1 30 Apr 02:29:32 02:30:30 11° 302° (WNW) 02:31:28 145.865
